Weather History for EIME - December, 2013

Change the Weather History Date:

Sunday, December 22, 2013

  Actual Average (EIDW) Record (EIDW)
Temperature  
Mean Temperature 36 °F -  
Max Temperature 39 °F 45 °F 56 °F (2012)
Min Temperature 33 °F 35 °F 15 °F (2010)
Degree Days  
Heating Degree Days 29    
Moisture  
Dew Point 34 °F    
Average Humidity 85    
Maximum Humidity 100    
Minimum Humidity 73    
Precipitation  
Precipitation 0.12 in - - ()
Sea Level Pressure  
Sea Level Pressure 29.58 in    
Wind  
Wind Speed 18 mph ()    
Max Wind Speed 30 mph    
Max Gust Speed 48 mph    
Visibility 9.0 miles    
Events Rain , Snow , Hail    
Averages and records for this station are not official NWS values.
T = Trace of Precipitation, MM = Missing Value Source: Averaged Metar Reports

Daily Weather History Graph

Daily Weather History Graph

Search for Another Location

Airport or City:

Trip Planner

Search our weather history database for the weather conditions in past years. The results will help you decide how hot, cold, wet, or windy it might be!

Date:

Astronomy

Dec. 22, 2013 Rise Set
Actual Time 8:39 AM GMT 4:09 PM GMT
Civil Twilight 7:56 AM GMT 4:52 PM GMT
Nautical Twilight 7:11 AM GMT 5:37 PM GMT
Astronomical Twilight 6:28 AM GMT 6:20 PM GMT
Moon 9:49 PM GMT (12/22) 10:51 AM GMT (12/22)
Length of Visible Light 8h 56m
Length of Day
7h 30m
Waning Gibbous, 78% of the Moon is Illuminated
Dec 22
Waning Gibbous
Dec 25
Last Quarter
Jan 1
New
Jan 8
First Quarter
Jan 16
Full

Hourly Weather History & Observations

Time (GMT) Temp. Windchill Dew Point Humidity Pressure Visibility Wind Dir Wind Speed Gust Speed Precip Events Conditions
12:00 AM 40 °F - 34 °F 73% 29.55 in 19 mi SSW 20.1 mph - -   Partly Cloudy
12:00 AM 41.0 °F 31.6 °F 33.8 °F 76% 29.50 in 6.2 mi SSW 20.7 mph - N/A   Mostly Cloudy
1:00 AM 40 °F - 35 °F 75% 29.52 in 19 mi SSW 17.9 mph - -   Partly Cloudy
1:00 AM 41.0 °F 32.2 °F 35.6 °F 81% 29.50 in 6.2 mi SSW 18.4 mph 33.4 mph N/A   Mostly Cloudy
2:00 AM 40 °F - 36 °F 81% 29.49 in 5 mi SSW 20.1 mph - - Rain Light Rain
2:00 AM 39.2 °F 29.6 °F 35.6 °F 87% 29.47 in 5.0 mi SSW 19.6 mph 31.1 mph N/A Rain Light Rain
3:00 AM 40 °F - 36 °F 81% 29.49 in 19 mi SSW 20.1 mph - -   Mostly Cloudy
3:00 AM 39.2 °F 29.6 °F 35.6 °F 87% 29.47 in 6.2 mi SSW 19.6 mph - N/A   Mostly Cloudy
4:00 AM 40 °F - 36 °F 78% 29.49 in 22 mi SSW 22.4 mph - -   Scattered Clouds
4:00 AM 39.2 °F 29.6 °F 35.6 °F 87% 29.47 in 6.2 mi SSW 19.6 mph - N/A   Scattered Clouds
5:00 AM 39 °F - 35 °F 81% 29.49 in 22 mi SSW 20.1 mph - -   Scattered Clouds
5:00 AM 39.2 °F 29.3 °F 35.6 °F 87% 29.47 in 6.2 mi SSW 20.7 mph - N/A   Scattered Clouds
6:00 AM 38 °F - 33 °F 77% 29.51 in 22 mi SW 20.1 mph - -   Partly Cloudy
6:00 AM 37.4 °F 26.9 °F 33.8 °F 87% 29.47 in 6.2 mi SW 20.7 mph 32.2 mph N/A   Scattered Clouds
7:00 AM 36 °F - 33 °F 85% 29.53 in 19 mi SW 17.9 mph - - Rain Light Rain Showers
7:00 AM 35.6 °F 25.2 °F 33.8 °F 93% 29.50 in 6.2 mi SW 18.4 mph 31.1 mph N/A   Mostly Cloudy
8:00 AM 37 °F - 34 °F 85% 29.54 in 7 mi SW 17.9 mph - - Rain Light Rain Showers
8:00 AM 37.4 °F 27.8 °F 33.8 °F 87% 29.50 in 6.2 mi SW 17.3 mph 28.8 mph N/A Rain Light Rain Showers
9:00 AM 36 °F - 34 °F 88% 29.56 in 10 mi SSW 20.1 mph - -   Partly Cloudy
9:00 AM 37.4 °F 26.9 °F 33.8 °F 87% 29.53 in 6.2 mi SSW 20.7 mph - N/A   Mostly Cloudy
10:00 AM 36 °F - 34 °F 88% 29.59 in 3 mi SW 17.9 mph - - Snow Light Snow Showers
10:00 AM 35.6 °F 25.5 °F 33.8 °F 93% 29.56 in 3.1 mi SW 17.3 mph - N/A Rain Rain Showers
11:00 AM 37 °F - 35 °F 91% 29.60 in 19 mi SSW 15.7 mph - - Snow Light Snow Showers
11:00 AM 37.4 °F 27.8 °F 35.6 °F 93% 29.56 in 6.2 mi SSW 17.3 mph - N/A   Mostly Cloudy
12:00 PM 38 °F - 35 °F 83% 29.61 in 5 mi SW 22.4 mph - - Snow Light Snow Showers
12:00 PM 37.4 °F 27.2 °F 35.6 °F 93% 29.59 in 5.0 mi SW 19.6 mph 35.7 mph N/A Rain , Snow Light Rain Showers
1:00 PM 36 °F - 34 °F 87% 29.62 in 22 mi SSW 17.9 mph - - Snow Light Snow Showers
1:00 PM 37.4 °F 27.2 °F 33.8 °F 87% 29.59 in 6.2 mi SSW 19.6 mph - N/A   Scattered Clouds
2:00 PM 38 °F - 34 °F 80% 29.62 in 25 mi SW 20.1 mph - -   Scattered Clouds
2:00 PM 37.4 °F 27.2 °F 33.8 °F 87% 29.59 in 6.2 mi SSW 19.6 mph - N/A   Partly Cloudy
3:00 PM 38 °F - 34 °F 80% 29.65 in 3 mi SW 22.4 mph - - Hail Heavy Small Hail
3:00 PM 37.4 °F 25.0 °F 33.8 °F 87% 29.62 in 2.5 mi WSW 29.9 mph 48.3 mph N/A Rain Rain Showers
4:00 PM 35 °F - 33 °F 91% 29.67 in 22 mi SW 15.7 mph - - Snow Light Snow Showers
4:00 PM 33.8 °F 24.3 °F 33.8 °F 100% 29.65 in 6.2 mi SW 13.8 mph - N/A   Partly Cloudy
5:00 PM 37 °F - 34 °F 83% 29.69 in 7 mi SW 17.9 mph - - Snow Light Snow Showers
5:00 PM 37.4 °F 26.1 °F 33.8 °F 87% 29.68 in 6.2 mi WSW 24.2 mph - N/A Rain , Snow Light Rain Showers
6:00 PM 34 °F - 32 °F 91% 29.70 in 12 mi SW 13.4 mph - - Snow Light Snow Showers
6:00 PM 33.8 °F 24.3 °F 32.0 °F 93% 29.68 in 6.2 mi SW 13.8 mph - N/A   Scattered Clouds
7:00 PM 35 °F - 32 °F 84% 29.70 in 19 mi SSW 15.7 mph - -   Scattered Clouds
7:00 PM 35.6 °F 26.2 °F 32.0 °F 87% 29.68 in 6.2 mi SSW 15.0 mph - N/A   Partly Cloudy
8:00 PM 36 °F - 32 °F 79% 29.69 in 16 mi SSW 17.9 mph - -   Partly Cloudy
8:00 PM 35.6 °F 24.8 °F 32.0 °F 87% 29.68 in 6.2 mi SSW 19.6 mph - N/A   Scattered Clouds
9:00 PM 36 °F - 32 °F 81% 29.69 in 19 mi SSW 20.1 mph - -   Scattered Clouds
9:00 PM 37.4 °F 27.5 °F 32.0 °F 81% 29.65 in 6.2 mi SSW 18.4 mph - N/A   Scattered Clouds
10:00 PM 36 °F - 32 °F 80% 29.68 in 19 mi SSW 17.9 mph - -   Scattered Clouds
10:00 PM 35.6 °F 25.2 °F 32.0 °F 87% 29.65 in 6.2 mi SSW 18.4 mph - N/A   Partly Cloudy
11:00 PM 37 °F - 33 °F 79% 29.67 in 19 mi SW 20.1 mph - -   Scattered Clouds
11:00 PM 37.4 °F 27.2 °F 32.0 °F 81% 29.65 in 6.2 mi SW 19.6 mph - N/A   Partly Cloudy